Hanamaulu, HI

1:54 PM HST on August 28, 2016 (GMT -1000)
Lihue

Weather History for PHLI - June, 2014

Change the Weather History Date:

Friday, June 6, 2014

  Actual Average Record
Temperature  
Mean Temperature 77 °F 78 °F  
Max Temperature 81 °F 83 °F 86 °F (1981)
Min Temperature 73 °F 72 °F 66 °F (1955)
Degree Days  
Heating Degree Days 0 0  
Month to date heating degree days 0 0  
Since 1 June heating degree days 0 0  
Since 1 July heating degree days 0 0  
Cooling Degree Days 12 13  
Month to date cooling degree days 75 74  
Year to date cooling degree days 1296 1313  
Since 1 June cooling degree days 75 74  
Growing Degree Days 26 (Base 50)    
Moisture  
Dew Point 68 °F    
Average Humidity 76    
Maximum Humidity 84    
Minimum Humidity 67    
Precipitation  
Precipitation 0.11 in 0.05 in 0.43 in (1991)
Month to date precipitation 2.01 0.29  
Year to date precipitation 17.80 16.13  
Snow  
Snow 0.00 in - - ()
Month to date snowfall 0.0  
Since 1 June snowfall 0.0  
Since 1 July snowfall 0.0  
Snow Depth 0.00 in    
Sea Level Pressure  
Sea Level Pressure 30.05 in    
Wind  
Wind Speed 17 mph (ENE)    
Max Wind Speed 24 mph    
Max Gust Speed 29 mph    
Visibility 9 miles    
Events Rain    
T = Trace of Precipitation, MM = Missing Value Source: NWS Daily Summary

Daily Weather History Graph

Daily Weather History Graph

Search for Another Location

Airport or City:

Trip Planner

Search our weather history database for the weather conditions in past years. The results will help you decide how hot, cold, wet, or windy it might be!

Date:

Astronomy

Jun. 06, 2014 Rise Set
Actual Time 5:53 AM HST 7:19 PM HST
Civil Twilight 5:28 AM HST 7:43 PM HST
Nautical Twilight 4:58 AM HST 8:13 PM HST
Astronomical Twilight 4:28 AM HST 8:44 PM HST
Moon 1:30 PM HST (6/6) 1:05 AM HST (6/6)
Length of Visible Light 14h 15m
Length of Day
13h 25m
First Quarter, 60% of the Moon is Illuminated
Jun 6
First Quarter
Jun 12
Full
Jun 19
Last Quarter
Jun 26
New
Jul 5
First Quarter

Hourly Weather History & Observations

Time (HST) Temp. Heat Index Dew Point Humidity Pressure Visibility Wind Dir Wind Speed Gust Speed Precip Events Conditions
12:21 AM 73.4 °F - 69.8 °F 88% 30.06 in 2.5 mi ENE 20.7 mph 28.8 mph 0.02 in Rain Heavy Rain
12:30 AM 73.4 °F - 69.8 °F 88% 30.06 in 6.0 mi ENE 18.4 mph - 0.08 in Rain Light Rain
12:40 AM 75.2 °F - 69.8 °F 83% 30.05 in 10.0 mi ENE 19.6 mph - 0.08 in   Mostly Cloudy
12:48 AM 75.2 °F - 69.8 °F 83% 30.05 in 10.0 mi ENE 19.6 mph - 0.08 in   Mostly Cloudy
12:53 AM 75.0 °F - 69.1 °F 82% 30.05 in 10.0 mi ENE 18.4 mph - 0.08 in   Mostly Cloudy
1:53 AM 75.9 °F - 68.0 °F 76% 30.04 in 10.0 mi ENE 16.1 mph - N/A   Mostly Cloudy
2:53 AM 75.0 °F - 66.9 °F 76% 30.03 in 10.0 mi ENE 18.4 mph - N/A   Partly Cloudy
3:53 AM 75.0 °F - 66.9 °F 76% 30.03 in 10.0 mi ENE 15.0 mph - N/A   Mostly Cloudy
4:45 AM 75.2 °F - 69.8 °F 83% 30.03 in 10.0 mi NE 17.3 mph 23.0 mph N/A   Overcast
4:53 AM 75.2 °F - 69.8 °F 83% 30.04 in 10.0 mi NE 18.4 mph - N/A   Overcast
5:11 AM 73.4 °F - 69.8 °F 88% 30.04 in 4.0 mi ENE 13.8 mph 28.8 mph 0.01 in Rain Heavy Rain
5:18 AM 73.4 °F - 69.8 °F 88% 30.04 in 6.0 mi ENE 12.7 mph - 0.03 in Rain Light Rain
5:53 AM 73.9 °F - 68.0 °F 82% 30.04 in 10.0 mi ENE 20.7 mph - 0.03 in   Scattered Clouds
6:53 AM 75.9 °F - 68.0 °F 76% 30.05 in 10.0 mi NE 18.4 mph - N/A   Scattered Clouds
7:53 AM 73.9 °F - 68.0 °F 82% 30.07 in 10.0 mi ENE 16.1 mph - N/A   Overcast
8:53 AM 75.9 °F - 68.0 °F 76% 30.08 in 10.0 mi ENE 19.6 mph - N/A   Overcast
9:53 AM 75.9 °F - 68.0 °F 76% 30.08 in 10.0 mi NNE 11.5 mph - 0.00 in   Overcast
10:53 AM 79.0 °F - 68.0 °F 69% 30.07 in 10.0 mi ENE 16.1 mph - N/A   Overcast
11:53 AM 78.1 °F - 68.0 °F 71% 30.07 in 10.0 mi NE 13.8 mph - N/A   Mostly Cloudy
12:53 PM 80.1 °F 82.9 °F 69.1 °F 69% 30.06 in 10.0 mi ENE 17.3 mph - N/A   Mostly Cloudy
1:53 PM 81.0 °F 83.8 °F 68.0 °F 65% 30.04 in 10.0 mi ENE 18.4 mph - 0.00 in   Partly Cloudy
2:53 PM 80.1 °F 83.2 °F 70.0 °F 71% 30.03 in 10.0 mi ENE 18.4 mph - 0.00 in   Scattered Clouds
3:53 PM 78.1 °F - 66.9 °F 68% 30.03 in 10.0 mi ENE 18.4 mph - N/A   Overcast
4:53 PM 78.1 °F - 66.9 °F 68% 30.02 in 10.0 mi ENE 17.3 mph - N/A   Overcast
5:53 PM 77.0 °F - 69.1 °F 76% 30.02 in 10.0 mi ENE 16.1 mph - N/A   Overcast
6:53 PM 75.9 °F - 69.1 °F 79% 30.04 in 10.0 mi NE 16.1 mph - N/A   Overcast
7:53 PM 75.9 °F - 68.0 °F 76% 30.04 in 10.0 mi NE 16.1 mph - N/A   Overcast
8:53 PM 72.0 °F - 64.9 °F 78% 30.06 in 10.0 mi NE 6.9 mph - 0.00 in Rain Light Rain
9:53 PM 75.0 °F - 69.1 °F 82% 30.06 in 10.0 mi ENE 16.1 mph - 0.00 in   Overcast
10:53 PM 75.9 °F - 69.1 °F 79% 30.07 in 10.0 mi ENE 18.4 mph - N/A   Overcast
11:53 PM 75.0 °F - 68.0 °F 79% 30.06 in 10.0 mi NE 15.0 mph - N/A   Overcast